| time (UTC) | temp F | wind direction | speed knots | gust knots | rain 1hr in | rain 24hr in | rain mn in | humidity % | barometer mb |
| 20260505034135 | 58 | 222 | 0.0 | 0.0 | 0.00 | 0.00 | 0.00 | 62 | 1016.4 |
| 20260505033132 | 58 | 222 | 0.0 | 0.0 | 0.00 | 0.00 | 0.00 | 62 | 1016.4 |
| 20260505032125 | 59 | 222 | 0.0 | 0.0 | 0.00 | 0.00 | 0.00 | 61 | 1016.4 |
| 20260505031118 | 59 | 222 | 0.0 | 0.0 | 0.00 | 0.00 | 0.00 | 59 | 1016.4 |
| 20260505030128 | 60 | 222 | 0.0 | 0.0 | 0.00 | 0.00 | 0.00 | 59 | 1016.4 |
| 20260505025123 | 60 | 222 | 0.0 | 0.0 | 0.00 | 0.00 | 0.00 | 59 | 1016.4 |
| 20260505024117 | 60 | 222 | 0.0 | 0.0 | 0.00 | 0.00 | 0.00 | 57 | 1016.3 |
| 20260505023130 | 61 | 222 | 0.0 | 0.0 | 0.00 | 0.00 | 0.00 | 57 | 1016.3 |
| 20260505022128 | 61 | 222 | 0.0 | 0.0 | 0.00 | 0.00 | 0.00 | 58 | 1016.2 |
| 20260505021120 | 62 | 222 | 0.0 | 0.0 | 0.00 | 0.00 | 0.00 | 55 | 1016.3 |
| 20260505020132 | 62 | 222 | 0.0 | 0.0 | 0.00 | 0.00 | 0.00 | 55 | 1016.2 |
| 20260505015122 | 63 | 222 | 0.0 | 0.0 | 0.00 | 0.00 | 0.00 | 56 | 1016.0 |
| 20260505014139 | 63 | 222 | 0.0 | 0.0 | 0.00 | 0.00 | 0.00 | 54 | 1016.0 |
| 20260505013131 | 63 | 222 | 0.0 | 0.0 | 0.00 | 0.00 | 0.00 | 54 | 1015.9 |
| 20260505012124 | 64 | 222 | 0.0 | 0.0 | 0.00 | 0.00 | 0.00 | 52 | 1015.6 |
| 20260505011117 | 65 | 222 | 0.0 | 0.0 | 0.00 | 0.00 | 0.00 | 52 | 1015.5 |
| 20260505010133 | 66 | 222 | 0.0 | 0.0 | 0.00 | 0.00 | 0.00 | 51 | 1015.4 |
| 20260505005125 | 67 | 222 | 0.0 | 0.0 | 0.00 | 0.00 | 0.00 | 50 | 1015.3 |
| 20260505004139 | 68 | 222 | 0.0 | 0.0 | 0.00 | 0.00 | 0.00 | 48 | 1015.2 |
| 20260505003150 | 69 | 222 | 0.0 | 0.0 | 0.00 | 0.00 | 0.00 | 47 | 1015.2 |
| 20260505002127 | 70 | 222 | 0.0 | 0.0 | 0.00 | 0.00 | 0.00 | 45 | 1015.0 |
| 20260505001121 | 71 | 222 | 0.0 | 0.0 | 0.00 | 0.00 | 0.00 | 44 | 1015.1 |
| 20260505000133 | 72 | 222 | 0.0 | 0.0 | 0.00 | 0.00 | 0.00 | 44 | 1014.9 |
| 20260504235144 | 73 | 222 | 0.0 | 0.0 | 0.00 | 0.00 | 0.00 | 43 | 1014.9 |
| 20260504234119 | 74 | 222 | 0.0 | 0.9 | 0.00 | 0.00 | 0.00 | 40 | 1014.9 |
| 20260504233131 | 74 | 222 | 0.0 | 1.7 | 0.00 | 0.00 | 0.00 | 39 | 1014.8 |
| 20260504232123 | 75 | 184 | 0.0 | 1.7 | 0.00 | 0.00 | 0.00 | 38 | 1014.9 |
| 20260504231120 | 76 | 186 | 0.0 | 0.9 | 0.00 | 0.00 | 0.00 | 39 | 1014.8 |
| 20260504230130 | 76 | 186 | 0.9 | 1.7 | 0.00 | 0.00 | 0.00 | 37 | 1014.7 |
| 20260504225121 | 76 | 261 | 0.9 | 3.5 | 0.00 | 0.00 | 0.00 | 38 | 1014.8 |
| 20260504224132 | 77 | 223 | 0.9 | 2.6 | 0.00 | 0.00 | 0.00 | 37 | 1014.8 |
| 20260504223148 | 77 | 292 | 1.7 | 4.3 | 0.00 | 0.00 | 0.00 | 36 | 1014.8 |
| 20260504222119 | 77 | 136 | 0.9 | 3.5 | 0.00 | 0.00 | 0.00 | 37 | 1014.8 |
| 20260504221133 | 77 | 300 | 0.9 | 3.5 | 0.00 | 0.00 | 0.00 | 38 | 1014.7 |
| 20260504220146 | 77 | 316 | 0.9 | 5.2 | 0.00 | 0.00 | 0.00 | 38 | 1014.8 |
| 20260504215118 | 77 | 219 | 1.7 | 3.5 | 0.00 | 0.00 | 0.00 | 38 | 1014.8 |
| 20260504214131 | 78 | 76 | 0.9 | 4.3 | 0.00 | 0.00 | 0.00 | 37 | 1014.7 |
| 20260504213124 | 77 | 278 | 1.7 | 5.2 | 0.00 | 0.00 | 0.00 | 37 | 1014.7 |
| 20260504212122 | 77 | 287 | 1.7 | 5.2 | 0.00 | 0.00 | 0.00 | 37 | 1014.7 |
| 20260504211133 | 77 | 233 | 0.9 | 4.3 | 0.00 | 0.00 | 0.00 | 38 | 1014.7 |
| 20260504210126 | 78 | 337 | 0.9 | 4.3 | 0.00 | 0.00 | 0.00 | 36 | 1014.7 |
| 20260504205114 | 78 | 244 | 2.6 | 5.2 | 0.00 | 0.00 | 0.00 | 37 | 1014.8 |
| 20260504204130 | 78 | 295 | 3.5 | 6.1 | 0.00 | 0.00 | 0.00 | 37 | 1014.8 |
| 20260504203143 | 77 | 190 | 2.6 | 4.3 | 0.00 | 0.00 | 0.00 | 39 | 1014.9 |
| 20260504202116 | 77 | 278 | 2.6 | 5.2 | 0.00 | 0.00 | 0.00 | 39 | 1015.0 |
| 20260504201128 | 77 | 284 | 3.5 | 7.0 | 0.00 | 0.00 | 0.00 | 38 | 1015.1 |
| 20260504200143 | 77 | 291 | 1.7 | 4.3 | 0.00 | 0.00 | 0.00 | 38 | 1015.2 |
| 20260504195132 | 77 | 307 | 0.0 | 3.5 | 0.00 | 0.00 | 0.00 | 38 | 1015.3 |
| 20260504194123 | 77 | 213 | 0.9 | 5.2 | 0.00 | 0.00 | 0.00 | 39 | 1015.4 |
| 20260504193115 | 77 | 209 | 1.7 | 4.3 | 0.00 | 0.00 | 0.00 | 39 | 1015.7 |
| 20260504192132 | 78 | 254 | 1.7 | 5.2 | 0.00 | 0.00 | 0.00 | 37 | 1015.9 |
| 20260504191125 | 78 | 159 | 1.7 | 5.2 | 0.00 | 0.00 | 0.00 | 37 | 1016.0 |
| 20260504190119 | 77 | 273 | 0.9 | 7.0 | 0.00 | 0.00 | 0.00 | 38 | 1016.1 |
| 20260504185128 | 77 | 123 | 2.6 | 7.0 | 0.00 | 0.00 | 0.00 | 37 | 1016.2 |
| 20260504184125 | 78 | 167 | 1.7 | 2.6 | 0.00 | 0.00 | 0.00 | 37 | 1016.1 |
| 20260504183118 | 77 | 144 | 1.7 | 4.3 | 0.00 | 0.00 | 0.00 | 37 | 1016.3 |
| 20260504182130 | 76 | 112 | 0.9 | 4.3 | 0.00 | 0.00 | 0.00 | 38 | 1016.3 |
| 20260504181128 | 75 | 181 | 2.6 | 6.1 | 0.00 | 0.00 | 0.00 | 38 | 1016.4 |
| 20260504180122 | 75 | 269 | 2.6 | 7.0 | 0.00 | 0.00 | 0.00 | 38 | 1016.5 |
| 20260504175133 | 75 | 307 | 5.2 | 7.8 | 0.00 | 0.00 | 0.00 | 38 | 1016.7 |
| 20260504174124 | 75 | 288 | 0.9 | 6.1 | 0.00 | 0.00 | 0.00 | 38 | 1016.6 |
| 20260504173122 | 74 | 194 | 0.9 | 6.1 | 0.00 | 0.00 | 0.00 | 41 | 1016.6 |
| 20260504172115 | 73 | 133 | 1.7 | 8.7 | 0.00 | 0.00 | 0.00 | 38 | 1016.9 |
| 20260504171129 | 73 | 254 | 1.7 | 5.2 | 0.00 | 0.00 | 0.00 | 39 | 1016.9 |
| 20260504170124 | 73 | 279 | 2.6 | 5.2 | 0.00 | 0.00 | 0.00 | 40 | 1016.9 |
| 20260504160118 | 71 | 285 | 3.5 | 6.1 | 0.00 | 0.00 | 0.00 | 43 | 1018.3 |
| 20260504151121 | 68 | 296 | 0.9 | 4.3 | 0.00 | 0.00 | 0.00 | 46 | 1018.4 |
| 20260504150116 | 67 | 360 | 1.7 | 1.7 | 0.00 | 0.00 | 0.00 | 51 | 1018.5 |
| 20260504141121 | 63 | 275 | 2.6 | 3.5 | 0.00 | 0.00 | 0.00 | 60 | 1018.3 |
| 20260504140135 | 62 | 290 | 0.9 | 4.3 | 0.00 | 0.00 | 0.00 | 65 | 1018.2 |
| 20260504130134 | 55 | 289 | 2.6 | 2.6 | 0.00 | 0.00 | 0.00 | 76 | 1018.3 |
| 20260504120115 | 46 | 130 | 0.0 | 0.0 | 0.00 | 0.00 | 0.00 | 89 | 1018.3 |
| 20260504110114 | 42 | 34 | 0.0 | 0.0 | 0.00 | 0.00 | 0.00 | 87 | 1018.4 |
| 20260504100120 | 43 | 261 | 0.0 | 0.0 | 0.00 | 0.00 | 0.00 | 86 | 1018.2 |
| 20260504090118 | 43 | 261 | 0.0 | 0.0 | 0.00 | 0.00 | 0.00 | 83 | 1018.3 |
| 20260504081122 | 45 | 261 | 0.0 | 0.0 | 0.00 | 0.00 | 0.00 | 81 | 1018.1 |
| 20260504080114 | 45 | 261 | 0.0 | 0.0 | 0.00 | 0.00 | 0.00 | 81 | 1018.0 |
| 20260504070115 | 46 | 280 | 0.0 | 0.0 | 0.00 | 0.00 | 0.00 | 77 | 1017.8 |
| 20260504060134 | 47 | 280 | 0.0 | 0.0 | 0.00 | 0.00 | 0.00 | 75 | 1018.1 |
| 20260504050132 | 48 | 280 | 0.0 | 0.0 | 0.00 | 0.00 | 0.00 | 73 | 1018.3 |
| 20260504045122 | 48 | 280 | 0.0 | 0.0 | 0.00 | 0.00 | 0.00 | 72 | 1018.2 |
| 20260504044118 | 48 | 280 | 0.0 | 0.0 | 0.00 | 0.00 | 0.00 | 73 | 1018.4 |
| 20260504043131 | 48 | 280 | 0.0 | 0.0 | 0.00 | 0.00 | 0.00 | 70 | 1018.3 |
| 20260504042124 | 48 | 280 | 0.0 | 0.0 | 0.00 | 0.00 | 0.00 | 73 | 1018.3 |
| 20260504041122 | 48 | 280 | 0.0 | 0.0 | 0.00 | 0.00 | 0.00 | 74 | 1018.3 |
| 20260504040114 | 48 | 280 | 0.0 | 0.0 | 0.00 | 0.00 | 0.00 | 73 | 1018.4 |
| 20260504035146 | 48 | 280 | 0.0 | 0.0 | 0.00 | 0.00 | 0.00 | 73 | 1018.4 |